Location: ??? ???
(33.4974°N, 35.4618°E)
Time: 18:04:29
(UTC+00:00)

Cosmos 2227 Rocket - Pass Details

Date: 29 October 2020
Orbit: 839 x 845 km, 71.0° (Epoch: 01 December)

Event Time Altitude Azimuth Distance (km) Brightness Sun altitude
Rises 16:56:57 0° 327° (NNW) 3,402 5.8 -27.2°
Reaches altitude 10° 16:59:38 10° 318° (NW) 2,464 5.1 -27.8°
Maximum altitude 17:04:32 31° 257° (WSW) 1,429 3.9 -28.8°
Drops below altitude 10° 17:09:27 10° 196° (SSW) 2,455 4.7 -29.9°
Sets 17:12:07 0° 187° (S) 3,387 5.4 -30.4°
